Regional Weather Roundup
Issued by NWS

Home | Current Version | Previous Version | Text Only | Print | Product List | Glossary Off
Versions: 1 2 3 4 5 6 7 8 9 10 11 12 13 14 15 16 17 18 19 20 21 22 23 24 25 26 27 28 29 30 31 32 33 34 35 36 37 38 39 40 41 42 43 44 45 46 47 48 49 50

000
ASUS43 KMPX 272110
RWRMN
WEATHER ROUNDUP FOR MINNESOTA
NATIONAL WEATHER SERVICE TWIN CITIES/CHANHASSEN MN
300 PM CST TUE JAN 27 2015


NOTE: "FAIR" INDICATES FEW OR NO CLOUDS BELOW 12,000 FEET WITH NO
SIGNIFICANT WEATHER AND/OR OBSTRUCTIONS TO VISIBILITY. N/A MEANS
CURRENT SKY AND/OR WEATHER CONDITIONS ARE NOT AVAILABLE.

MNZ060>063-068>070-272200-
   Twin Cities Metro

CITY           SKY/WX    TMP DP  RH WIND       PRES   REMARKS
TWIN CITIES    CLOUDY    33  24  69 SE7       30.16F WCI  27
ST PAUL        CLOUDY    33  25  72 S7        30.18S WCI  27
CRYSTAL        CLOUDY    34  25  69 SE8       30.14F WCI  27
BLAINE         CLOUDY    36  27  69 SE7       30.15F
LAKEVILLE      CLOUDY    32  27  80 SE5       30.16S WCI  27
EDEN PRAIRIE   CLOUDY    34  26  72 SE7       30.15S WCI  28
SOUTH ST PAUL  CLOUDY    33  26  73 S3        30.16F
LAKE ELMO      CLOUDY    32  27  80 S7        30.17S WCI  26
$$
MNZ001>005-007-008-013>017-022>024-027-028-272200-
   Northwest Minnesota

CITY           SKY/WX    TMP DP  RH WIND       PRES   REMARKS
BEMIDJI        CLOUDY    33  27  79 SE9       30.01F WCI  25
HALLOCK        CLOUDY    30  30 100 S13       29.96S WCI  20
ROSEAU         CLOUDY    30  25  80 SE6       29.99S WCI  24
WARROAD        CLOUDY    30  27  86 SE8       30.00F WCI  23
THIEF RVR FALL PTSUNNY   34  30  86 S10       29.98S WCI  26
CROOKSTON      CLOUDY    34  30  86 S17G25    29.99F WCI  23
FOSSTON        PTSUNNY   37  28  70 S5        29.99F
DETROIT LAKES  PTSUNNY   32  30  93 SE17      30.01F WCI  21
MOORHEAD       CLOUDY    32  32 100 S13       30.01F WCI  22
PARK RAPIDS    PTSUNNY   35  27  72 S14       30.02F WCI  26
MAHNOMEN       FAIR      35  29  80 S8        29.99F WCI  28
$$
MNZ006-009>011-018-025>026-272200-
   North Central Minnesota

CITY           SKY/WX    TMP DP  RH WIND       PRES   REMARKS
BAUDETTE       CLOUDY    31  24  75 S5        30.01S WCI  26
FLAG ISLAND    CLOUDY    27  25  93 SE12      30.00F WCI  16
INTL FALLS     PTSUNNY   30  23  75 SE6       30.05S WCI  24
WASKISH        CLOUDY    34  27  75 SE7       30.03R WCI  28
BIG FORK       CLOUDY    30  25  80 S6        30.05F WCI  24
LONGVILLE      PTSUNNY   32  27  80 S8        30.05F WCI  25
GRAND RAPIDS   PTSUNNY   30  25  80 S12       30.06F WCI  21
CRANE LAKE     CLOUDY    25  23  93 S3        30.11R
ORR            CLOUDY    27  21  80 S7        30.05S WCI  19
COOK           CLOUDY    27  25  93 SE7       30.08F WCI  19
WALKER         MOCLDY    32  26  77 SE9       30.03S WCI  24
$$
MNZ012-019>021-037-272200-
   Northeast Minnesota

CITY           SKY/WX    TMP DP  RH WIND       PRES   REMARKS
DULUTH         CLOUDY    28  21  75 S8        30.10F WCI  20
ELY            CLOUDY    27  21  80 S6        30.09F WCI  20
HIBBING        CLOUDY    30  22  72 S6        30.09S WCI  24
EVELETH        CLOUDY    28  23  80 SW7       30.11R WCI  21
DULUTH HARBOR  CLOUDY    30  25  80 S7        30.16F WCI  23
TWO HARBORS    CLOUDY    30  23  74 S7        30.11F WCI  23
SILVER BAY     CLOUDY    30  25  80 S7        30.12R WCI  23
GRAND MARAIS     N/A     30  22  72 CALM      30.15F
G MARAIS ARPRT   N/A     25  18  74 CALM      30.08F
$$
MNZ029>031-032-039>041-046>048-054>057-064-272200-
   West Central Minnesota

CITY           SKY/WX    TMP DP  RH WIND       PRES   REMARKS
FERGUS FALLS   CLOUDY    30  30 100 S18       30.05F WCI  18
WHEATON        CLOUDY    28  28 100 SE17      30.05F FOG     WCI  16
MORRIS         CLOUDY    30  30 100 S20       30.05S WCI  18
ALEXANDRIA     CLOUDY    32  28  85 S12       30.06F WCI  23
ELBOW LAKE     CLOUDY    31  30  96 SE17      30.04S WCI  20
WADENA         CLOUDY    30  27  86 S14       30.04F WCI  20
GLENWOOD       CLOUDY    32  28  86 SE17      30.07F WCI  21
APPLETON       CLOUDY    34  30  86 SE10      30.07S WCI  26
BENSON         CLOUDY    32  28  86 S14       30.08S WCI  22
ORTONVILLE     CLOUDY    30  28  93 SE12G17   30.04F FOG     WCI  21
MADISON        CLOUDY    36  36 100 SE16      30.05F
WILLMAR        CLOUDY    34  28  80 SE14      30.11F WCI  24
$$
MNZ033>034-036-042>043-049>051-058-059-272200-
   Central Minnesota

CITY           SKY/WX    TMP DP  RH WIND       PRES   REMARKS
ST CLOUD       CLOUDY    34  26  72 S12       30.11F WCI  25
SAUK CENTRE    CLOUDY    31  28  88 SE13      30.08F WCI  22
PAYNESVILLE    CLOUDY    31  27  88 SE10      30.10F WCI  22
AITKIN         CLOUDY    36  27  69 S8        30.07F
PINE RIVER     CLOUDY    32  27  80 S9        30.09F WCI  24
BRAINERD       CLOUDY    32  26  78 S13       30.08F WCI  22
STAPLES        CLOUDY    30  27  86 SE10      30.06F WCI  21
LONG PRAIRIE   CLOUDY    32  28  86 SE13      30.08S WCI  22
LITTLE FALLS   CLOUDY    34  27  75 S9        30.10F WCI  26
LITCHFIELD     CLOUDY    36  30  80 S6        30.12F
BUFFALO        CLOUDY    35  27  73 SE8       30.14S WCI  28
MAPLE LAKE     CLOUDY    36  30  77 SE7       30.13F
$$
MNZ037-044-045-052-053-272200-
   East Central Minnesota

CITY           SKY/WX    TMP DP  RH WIND       PRES   REMARKS
PRINCETON      CLOUDY    34  27  75 S9        30.14S WCI  26
MORA           CLOUDY    32  23  69 S7        30.14F WCI  26
CAMBRIDGE      CLOUDY    34  25  69 S7        30.11F WCI  28
RUSH CITY      CLOUDY    32  25  75 S5        30.15F WCI  27
MOOSE LAKE     CLOUDY    32  23  69 S3        30.12S
HINCKLEY       CLOUDY    32  27  80 S8        30.13F WCI  25
CLOQUET        CLOUDY    28  21  74 S3        30.12R
MCGREGOR       PTSUNNY   32  27  80 SE9       30.10R WCI  24
$$
MNZ071>073-080-081-089-090-097-098-272200-
   Southwest Minnesota

CITY           SKY/WX    TMP DP  RH WIND       PRES   REMARKS
MONTEVIDEO     CLOUDY    32  32 100 S12       30.10R WCI  23
GRANITE FALLS  CLOUDY    33  30  90 SE12      30.11R WCI  24
CANBY          PTSUNNY   37  34  87 SE10G16   30.05F
MARSHALL       PTSUNNY   34  28  80 S12       30.08F WCI  25
REDWOOD FALLS  CLOUDY    34  30  85 SE14      30.10F WCI  25
OLIVIA         CLOUDY    32  30  93 SE12      30.11S WCI  23
PIPESTONE      CLOUDY    32  32 100 S10       30.03S WCI  24
WINDOM         CLOUDY    37  34  87 SE8       30.08F
WORTHINGTON    MOSUNNY   39  34  81 S12       30.07S
JACKSON        CLOUDY    37  32  81 SE12      30.09S
TRACY          MOSUNNY   38  35  85 SE10      30.07F
SLAYTON        MOSUNNY   37  36  96 S9        30.06S
$$
MNZ065>067-074>077-082>085-091>093-272200-
   South Central Minnesota

CITY           SKY/WX    TMP DP  RH WIND       PRES   REMARKS
MANKATO        CLOUDY    36  28  75 S14       30.14R
NEW ULM        CLOUDY    36  28  75 SE8       30.13R
ST JAMES       CLOUDY    37  32  81 SE10      30.13S
FAIRMONT       CLOUDY    36  27  69 SE10      30.11S
GLENCOE        CLOUDY    37  31  80 SE8       30.13S
FARIBAULT      CLOUDY    34  27  75 SE7       30.16S WCI  28
OWATONNA       CLOUDY    34  27  75 SE7       30.16R WCI  28
WASECA         CLOUDY    34  30  86 SE10      30.16S WCI  26
ALBERT LEA     CLOUDY    34  28  80 SE6       30.14S WCI  29
$$
MNZ078>079-086>088-094>096-272200-
   Southeast Minnesota

CITY           SKY/WX    TMP DP  RH WIND       PRES   REMARKS
ROCHESTER      CLOUDY    29  24  82 S8        30.16S WCI  21
RED WING       CLOUDY    32  23  69 SE5       30.18R WCI  27
STANTON        CLOUDY    33  26  75 SE7       30.15S WCI  27
DODGE CENTER   CLOUDY    30  27  86 S6        30.15S WCI  24
WINONA         CLOUDY    32  23  69 CALM      30.20S
AUSTIN         CLOUDY    32  27  80 S3        30.15F
PRESTON        CLOUDY    28  23  81 CALM      30.17R
$$
ABBREVIATIONS USED IN REMARKS
   TC - TEMPERATURES IN CELSIUS
  WCI - WIND CHILL INDEX
   HX - HEAT INDEX
  VSB - VISIBILITY
$$


USA.gov is the U.S. government's official web portal to all federal, state and local government web resources and services.